STARLINK-34414 (64620 NORAD) Tracking and Keplerian Element Data

This shows tracking and keplerian element data for the satellite.

Feedback or suggestion? Click here.




ElementValue
Catalog64620
NameSTARLINK-34414
Epoch Orbit2840
Epoch Day353.23052441
Epoch Year2025
RAAN349.8501
Inclination53.1604
Eccentricity0.0001678
Argument of Perigee133.2731
Mean Anonmoly226.8414
Mean Motion15.39630369
Decay Rate0.00028845
L11 64620U 25137AC 25353.23052441 .00028845 00000+0 72812-3 0 9994
L22 64620 53.1604 349.8501 0001678 133.2731 226.8414 15.39630369 28407



Live tracking and technical data element details for STARLINK-34414 (NORAD 64620). STARLINK-34414 can be tracked NOW for your location showing map with azimuth and elevation plus other details from your city location.







IsCatalogInMostPopularTable: catalog: 64620, numindb: 6
Update: records affected: 1



GetName: 64620 STARLINK-34414

Hit Count: updated at: Sat, 11 Apr 2026 20:09:52 GMT